This is the latest recevied weather packets stored in our database for station/object KC6OYN. If no packets are shown the sender has not sent any weather packets the latest 10 day(s).
| Time | Temp. | Humidity | Pressure | Rain* | Wind** | Luminosity | Snow |
|---|---|---|---|---|---|---|---|
| 1777609818 | 13.33° C | 77% | 1023.9 hPa | 0 mm | - | - | - |
| 1777609577 | 12.78° C | 78% | 1023.8 hPa | 0 mm | - | - | - |
| 1777609336 | 12.78° C | 79% | 1023.8 hPa | 0 mm | - | - | - |
| 1777609095 | 12.78° C | 80% | 1023.9 hPa | 0 mm | - | - | - |
| 1777608854 | 12.22° C | 81% | 1023.7 hPa | 0 mm | - | - | - |
| 1777608613 | 12.22° C | 82% | 1023.8 hPa | 0 mm | - | - | - |
| 1777608372 | 11.67° C | 82% | 1023.6 hPa | 0 mm | - | - | - |
| 1777608131 | 11.67° C | 82% | 1023.7 hPa | 0 mm | - | - | - |
| 1777607891 | 11.11° C | 83% | 1023.6 hPa | 0 mm | - | - | - |
| 1777607650 | 11.11° C | 82% | 1023.5 hPa | 0 mm | - | - | - |
| 1777607409 | 11.11° C | 83% | 1023.5 hPa | 0 mm | - | - | - |
| 1777607168 | 10.56° C | 83% | 1023.5 hPa | 0 mm | - | - | - |
| 1777606927 | 10.56° C | 82% | 1023.4 hPa | 0 mm | - | - | - |
| 1777606686 | 10.56° C | 82% | 1023.4 hPa | 0 mm | - | - | - |
| 1777606445 | 10.56° C | 82% | 1023.4 hPa | 0 mm | - | - | - |
| 1777606204 | 10.56° C | 81% | 1023.3 hPa | 0 mm | - | - | - |
| 1777605963 | 11.11° C | 81% | 1023.2 hPa | 0 mm | - | - | - |
| 1777605722 | 11.11° C | 80% | 1023.1 hPa | 0 mm | - | - | - |
| 1777605481 | 11.11° C | 80% | 1023.3 hPa | 0 mm | - | - | - |
| 1777605240 | 11.11° C | 79% | 1023.2 hPa | 0 mm | - | - | - |
| 1777604999 | 11.67° C | 79% | 1023.1 hPa | 0 mm | - | - | - |
| 1777604759 | 11.67° C | 79% | 1023 hPa | 0 mm | - | - | - |
| 1777604518 | 11.67° C | 78% | 1023 hPa | 0 mm | - | - | - |
| 1777604277 | 11.67° C | 78% | 1023 hPa | 0 mm | - | - | - |
| 1777604036 | 11.67° C | 77% | 1023 hPa | 0 mm | - | - | - |
* Rain since midnight (hover to see other rain measurements)
** Current wind speed in m/s (hover to see current wind gust speed)